Wink, TX

7:49 AM CDT on September 24, 2017 (GMT -0500)
Winkler County

Weather History for KINK - August, 2012

Change the Weather History Date:

Tuesday, August 28, 2012

  Actual Average Record
Temperature  
Mean Temperature 78 °F -  
Max Temperature 93 °F 92 °F 108 °F (2002)
Min Temperature 64 °F 66 °F 57 °F (1992)
Cooling Degree Days 14    
Growing Degree Days 28 (Base 50)    
Moisture  
Dew Point 56 °F    
Average Humidity 54    
Maximum Humidity 93    
Minimum Humidity 16    
Precipitation  
Precipitation 0.00 in - - ()
Sea Level Pressure  
Sea Level Pressure 29.96 in    
Wind  
Wind Speed 7 mph (NNE)    
Max Wind Speed 15 mph    
Max Gust Speed 23 mph    
Visibility 10 miles    
Events      
Averages and records for this station are not official NWS values.
T = Trace of Precipitation, MM = Missing Value Source: NWS Daily Summary

Daily Weather History Graph

Daily Weather History Graph

Search for Another Location

Airport or City:

Trip Planner

Search our weather history database for the weather conditions in past years. The results will help you decide how hot, cold, wet, or windy it might be!

Date:

Astronomy

Aug. 28, 2012 Rise Set
Actual Time 7:26 AM CDT 8:20 PM CDT
Civil Twilight 7:01 AM CDT 8:45 PM CDT
Nautical Twilight 6:31 AM CDT 9:15 PM CDT
Astronomical Twilight 6:01 AM CDT 9:45 PM CDT
Moon 6:19 PM CDT (8/28) 4:25 AM CDT (8/28)
Length of Visible Light 13h 44m
Length of Day
12h 54m
Waxing Gibbous, 90% of the Moon is Illuminated
Aug 28
Waxing Gibbous
Aug 31
Full
Sep 8
Last Quarter
Sep 15
New
Sep 22
First Quarter

Hourly Weather History & Observations

Time (CDT) Temp. Heat Index Dew Point Humidity Pressure Visibility Wind Dir Wind Speed Gust Speed Precip Events Conditions
12:53 AM 69.1 °F - 64.9 °F 87% 30.02 in 10.0 mi North 4.6 mph - N/A   Clear
1:53 AM 68.0 °F - 64.9 °F 90% 30.01 in 10.0 mi NNW 4.6 mph - N/A   Clear
2:53 AM 68.0 °F - 64.9 °F 90% 30.01 in 10.0 mi North 5.8 mph - N/A   Clear
3:53 AM 66.9 °F - 64.0 °F 90% 30.00 in 10.0 mi North 5.8 mph - N/A   Clear
4:53 AM 66.0 °F - 64.0 °F 93% 30.01 in 10.0 mi NNW 4.6 mph - N/A   Clear
5:53 AM 66.9 °F - 64.9 °F 93% 30.01 in 10.0 mi North 4.6 mph - N/A   Clear
6:53 AM 66.0 °F - 64.0 °F 93% 30.02 in 10.0 mi North 6.9 mph - N/A   Clear
7:53 AM 64.9 °F - 63.0 °F 93% 30.04 in 10.0 mi North 5.8 mph - N/A   Clear
10:53 AM 82.0 °F 83.0 °F 62.1 °F 51% 30.05 in 10.0 mi NNE 8.1 mph - N/A   Clear
1:53 PM 89.1 °F 86.9 °F 54.0 °F 30% 29.99 in 10.0 mi NNE 3.5 mph 21.9 mph N/A   Partly Cloudy
2:53 PM 93.0 °F - 48.9 °F 22% 29.96 in 10.0 mi NNE 15.0 mph 23.0 mph N/A   Scattered Clouds
3:53 PM 93.0 °F - 41.0 °F 16% 29.92 in 10.0 mi ENE 9.2 mph - N/A   Clear
4:53 PM 93.0 °F - 48.0 °F 21% 29.90 in 10.0 mi East 13.8 mph 21.9 mph N/A   Clear
5:53 PM 91.9 °F - 50.0 °F 24% 29.88 in 10.0 mi ENE 13.8 mph - N/A   Clear
6:53 PM 91.0 °F - 51.1 °F 25% 29.87 in 10.0 mi East 9.2 mph - N/A   Partly Cloudy
7:53 PM 88.0 °F - 52.0 °F 29% 29.88 in 10.0 mi East 6.9 mph - N/A   Clear
8:53 PM 82.9 °F - 50.0 °F 32% 29.89 in 10.0 mi ENE 5.8 mph - N/A   Clear
9:53 PM 79.0 °F - 50.0 °F 36% 29.90 in 10.0 mi NNE 6.9 mph - N/A   Clear
10:53 PM 77.0 °F - 48.0 °F 36% 29.91 in 10.0 mi NE 6.9 mph - N/A   Clear
11:53 PM 73.9 °F - 46.9 °F 38% 29.91 in 10.0 mi NNE 5.8 mph - N/A   Clear